FW6620 Weather Reports


time (UTC)temp
F
wind
direction
speed
knots
gust
knots
rain 1hr
in
rain 24hr
in
rain mn
in
humidity
%
barometer
mb
20260902211045 98 0 0.0 2.6 0.00 0.00 0.00 47 1011.9
20260902210546 98 57 0.0 2.6 0.00 0.00 0.00 46 1011.9
20260902210135 97 57 0.0 3.5 0.00 0.00 0.00 48 1011.9
20260902205545 96 0 0.0 3.5 0.00 0.00 0.00 48 1012.0
20260902205045 95 0 0.0 2.6 0.00 0.00 0.00 49 1012.2
20260902204556 94 58 0.9 2.6 0.00 0.00 0.00 53 1012.2
20260902204046 93 0 0.0 2.6 0.00 0.00 0.00 58 1012.3
20260902203545 92 0 0.0 2.6 0.00 0.00 0.00 59 1012.4
20260902203053 91 0 0.0 1.7 0.00 0.00 0.00 69 1012.5
20260902202546 90 57 0.0 0.9 0.00 0.00 0.00 69 1012.7
20260902202049 90 0 0.0 1.7 0.00 0.00 0.00 71 1012.7
20260902201619 90 0 0.0 1.7 0.00 0.00 0.00 72 1012.8
20260902201045 92 57 0.0 1.7 0.00 0.00 0.00 67 1012.9
20260902200546 95 0 0.0 1.7 0.00 0.00 0.00 64 1013.0
20260902200106 97 57 0.0 1.7 0.00 0.00 0.00 56 1012.9
20260902195546 97 0 0.0 3.5 0.00 0.00 0.00 47 1013.0
20260902195045 97 57 0.9 3.5 0.00 0.00 0.00 47 1013.1
20260902194600 98 0 0.0 2.6 0.00 0.00 0.00 47 1013.1
20260902194050 98 53 0.0 1.7 0.00 0.00 0.00 47 1013.1
20260902193545 98 0 0.0 2.6 0.00 0.00 0.00 51 1013.1
20260902193101 97 0 0.0 2.6 0.00 0.00 0.00 48 1013.2
20260902192545 97 0 0.0 0.0 0.00 0.00 0.00 47 1013.4
20260902192046 97 0 0.0 0.0 0.00 0.00 0.00 48 1013.4
20260902191602 97 0 0.0 0.0 0.00 0.00 0.00 48 1013.5
20260902191045 98 0 0.0 0.0 0.00 0.00 0.00 49 1013.5
20260902190548 98 0 0.0 0.0 0.00 0.00 0.00 47 1013.7
20260902190124 98 0 0.0 0.9 0.00 0.00 0.00 47 1013.6
20260902185546 98 0 0.0 2.6 0.00 0.00 0.00 47 1013.8
20260902185046 99 0 0.0 2.6 0.00 0.00 0.00 45 1013.8
20260902184607 99 0 0.9 5.2 0.00 0.00 0.00 44 1013.9
20260902184046 99 0 0.9 5.2 0.00 0.00 0.00 46 1013.9
20260902183546 98 57 0.9 2.6 0.00 0.00 0.00 47 1014.1
20260902183054 98 57 0.0 2.6 0.00 0.00 0.00 49 1014.1
20260902182545 97 0 0.0 1.7 0.00 0.00 0.00 51 1014.2
20260902182046 97 0 0.0 1.7 0.00 0.00 0.00 51 1014.3
20260902181623 97 0 0.0 1.7 0.00 0.00 0.00 48 1014.5
20260902181045 97 55 0.0 1.7 0.00 0.00 0.00 49 1014.4
20260902180545 97 55 0.0 1.7 0.00 0.00 0.00 50 1014.5
20260902180100 97 55 0.0 2.6 0.00 0.00 0.00 49 1014.6
20260902175545 97 0 0.0 2.6 0.00 0.00 0.00 50 1014.7
20260902175045 97 55 0.0 3.5 0.00 0.00 0.00 48 1014.8
20260902174554 97 55 0.0 3.5 0.00 0.00 0.00 51 1015.0
20260902174049 97 0 0.9 5.2 0.00 0.00 0.00 50 1015.1
20260902173546 97 0 0.9 5.2 0.00 0.00 0.00 51 1015.3
20260902173102 97 70 0.0 3.5 0.00 0.00 0.00 52 1015.3
20260902172545 96 0 0.0 5.2 0.00 0.00 0.00 50 1015.4
20260902172045 96 0 0.9 5.2 0.00 0.00 0.00 50 1015.5
20260902171618 96 0 0.9 5.2 0.00 0.00 0.00 51 1015.6
20260902171045 95 0 0.0 2.6 0.00 0.00 0.00 53 1015.6
20260902170545 95 0 0.0 3.5 0.00 0.00 0.00 54 1015.6
20260902170103 95 0 0.9 3.5 0.00 0.00 0.00 55 1015.7
20260902165546 94 56 0.9 5.2 0.00 0.00 0.00 55 1015.8
20260902165049 94 55 0.9 5.2 0.00 0.00 0.00 55 1015.8
20260902164604 93 60 0.9 5.2 0.00 0.00 0.00 56 1015.9
20260902164045 93 70 0.0 3.5 0.00 0.00 0.00 57 1015.9
20260902163547 92 0 0.0 1.7 0.00 0.00 0.00 58 1016.0
20260902163057 92 58 0.0 2.6 0.00 0.00 0.00 60 1016.0
20260902162545 91 0 0.9 2.6 0.00 0.00 0.00 60 1016.1
20260902162045 91 58 0.0 2.6 0.00 0.00 0.00 60 1016.1
20260902161605 91 0 0.0 3.5 0.00 0.00 0.00 61 1016.1
20260902161045 90 55 0.9 3.5 0.00 0.00 0.00 62 1016.1
20260902160546 89 0 0.0 3.5 0.00 0.00 0.00 63 1016.0
20260902160058 89 57 0.9 3.5 0.00 0.00 0.00 63 1016.1
20260902155546 89 64 0.0 1.7 0.00 0.00 0.00 66 1016.1
20260902155045 88 0 0.0 1.7 0.00 0.00 0.00 67 1016.2
20260902154556 88 0 0.0 1.7 0.00 0.00 0.00 69 1016.1
20260902154045 87 0 0.0 1.7 0.00 0.00 0.00 69 1016.2
20260902153545 87 0 0.0 1.7 0.00 0.00 0.00 69 1016.2
20260902153055 87 0 0.0 1.7 0.00 0.00 0.00 70 1016.2
20260902152544 86 0 0.0 1.7 0.00 0.00 0.00 70 1016.3
20260902152048 86 0 0.0 1.7 0.00 0.00 0.00 71 1016.3
20260902151553 85 0 0.0 0.9 0.00 0.00 0.00 72 1016.3
20260902151045 85 0 0.0 1.7 0.00 0.00 0.00 73 1016.2
20260902150544 84 0 0.0 1.7 0.00 0.00 0.00 75 1016.3
20260902145546 83 0 0.0 1.7 0.00 0.00 0.00 76 1016.1
20260902145045 83 0 0.0 0.0 0.00 0.00 0.00 77 1016.2
20260902144602 83 0 0.0 0.0 0.00 0.00 0.00 77 1016.3
20260902144046 82 0 0.0 0.0 0.00 0.00 0.00 77 1016.3
20260902143546 82 0 0.0 0.9 0.00 0.00 0.00 77 1016.3
20260902143059 82 0 0.0 0.9 0.00 0.00 0.00 77 1016.3
20260902142545 82 0 0.0 0.0 0.00 0.00 0.00 78 1016.3
20260902142046 82 0 0.0 1.7 0.00 0.00 0.00 79 1016.3
20260902141604 82 0 0.0 1.7 0.00 0.00 0.00 79 1016.3
20260902141045 82 64 0.0 0.9 0.00 0.00 0.00 79 1016.4
20260902140545 81 0 0.0 2.6 0.00 0.00 0.00 79 1016.4
20260902140100 81 0 0.0 2.6 0.00 0.00 0.00 80 1016.4
20260902135545 80 64 0.0 2.6 0.00 0.00 0.00 81 1016.4
20260902135045 80 0 0.0 1.7 0.00 0.00 0.00 82 1016.3
20260902134612 79 0 0.0 1.7 0.00 0.00 0.00 82 1016.3
20260902134045 79 0 0.0 0.0 0.00 0.00 0.00 84 1016.4
20260902133547 78 0 0.0 0.0 0.00 0.00 0.00 84 1016.3
20260902133055 78 0 0.0 0.0 0.00 0.00 0.00 85 1016.2
20260902132546 78 0 0.0 0.0 0.00 0.00 0.00 86 1016.2
20260902132045 77 0 0.0 0.0 0.00 0.00 0.00 87 1016.1
20260902131552 77 0 0.0 0.0 0.00 0.00 0.00 86 1016.0
20260902131048 76 0 0.0 0.0 0.00 0.00 0.00 85 1016.0
20260902130546 76 0 0.0 0.0 0.00 0.00 0.00 85 1016.0
20260902130059 76 0 0.0 0.0 0.00 0.00 0.00 85 1015.9
20260902125544 76 0 0.0 0.0 0.00 0.00 0.00 85 1015.9
20260902125048 76 0 0.0 0.0 0.00 0.00 0.00 85 1015.8
20260902124556 76 0 0.0 0.0 0.00 0.00 0.00 85 1015.8
20260902124046 76 0 0.0 0.0 0.00 0.00 0.00 85 1015.8
20260902123545 76 0 0.0 0.0 0.00 0.00 0.00 85 1015.7
20260902123059 76 0 0.0 0.0 0.00 0.00 0.00 85 1015.7
20260902122545 76 0 0.0 0.0 0.00 0.00 0.00 84 1015.7
20260902122045 76 0 0.0 0.0 0.00 0.00 0.00 84 1015.6
20260902121549 76 0 0.0 0.0 0.00 0.00 0.00 84 1015.6
20260902121046 76 0 0.0 0.0 0.00 0.00 0.00 84 1015.6
20260902120546 76 0 0.0 0.0 0.00 0.00 0.00 84 1015.6
20260902120101 76 0 0.0 0.0 0.00 0.00 0.00 84 1015.6
20260902115545 76 0 0.0 0.0 0.00 0.00 0.00 84 1015.5
20260902115045 76 0 0.0 0.0 0.00 0.00 0.00 84 1015.5
20260902114557 76 0 0.0 0.0 0.00 0.00 0.00 84 1015.4
20260902114046 76 0 0.0 0.0 0.00 0.00 0.00 84 1015.4
20260902113545 76 0 0.0 0.0 0.00 0.00 0.00 84 1015.4
20260902113054 76 0 0.0 0.0 0.00 0.00 0.00 83 1015.4
20260902112545 76 0 0.0 0.0 0.00 0.00 0.00 83 1015.3
20260902112045 76 0 0.0 0.0 0.00 0.00 0.00 83 1015.3
20260902111601 76 0 0.0 0.0 0.00 0.00 0.00 83 1015.3
20260902111046 76 0 0.0 0.0 0.00 0.00 0.00 83 1015.4
20260902110546 77 0 0.0 0.0 0.00 0.00 0.00 83 1015.4
20260902110057 77 0 0.0 0.0 0.00 0.00 0.00 82 1015.4
20260902105545 77 0 0.0 0.0 0.00 0.00 0.00 82 1015.4
20260902105046 77 0 0.0 0.9 0.00 0.00 0.00 82 1015.4
20260902104600 77 0 0.0 0.9 0.00 0.00 0.00 82 1015.3
20260902104047 77 0 0.0 0.0 0.00 0.00 0.00 83 1015.4
20260902103547 77 0 0.0 0.0 0.00 0.00 0.00 82 1015.4
20260902103108 77 0 0.0 0.0 0.00 0.00 0.00 82 1015.4
20260902102547 77 0 0.0 0.0 0.00 0.00 0.00 82 1015.4
20260902102047 78 0 0.0 0.0 0.00 0.00 0.00 81 1015.4
20260902101600 78 0 0.0 0.0 0.00 0.00 0.00 81 1015.4
20260902101047 78 0 0.0 0.0 0.00 0.00 0.00 81 1015.3
20260902100547 78 0 0.0 0.0 0.00 0.00 0.00 81 1015.3
20260902100058 78 0 0.0 0.0 0.00 0.00 0.00 81 1015.1
20260902095546 78 0 0.0 0.0 0.00 0.00 0.00 80 1015.3
20260902095046 79 0 0.0 0.0 0.00 0.00 0.00 80 1015.2
20260902094605 79 0 0.0 0.0 0.00 0.00 0.00 80 1015.2
20260902094047 79 0 0.0 0.0 0.00 0.00 0.00 80 1015.3
20260902093547 79 0 0.0 0.0 0.00 0.00 0.00 80 1015.2
20260902093101 79 0 0.0 0.0 0.00 0.00 0.00 80 1015.3
20260902092547 79 0 0.0 0.0 0.00 0.00 0.00 80 1015.4
20260902092047 79 0 0.0 0.9 0.00 0.00 0.00 79 1015.3
20260902091559 79 0 0.0 0.9 0.00 0.00 0.00 79 1015.3
20260902091047 79 0 0.0 0.9 0.00 0.00 0.00 79 1015.4
20260902090549 79 0 0.0 0.0 0.00 0.00 0.00 79 1015.4
20260902090058 79 0 0.0 0.0 0.00 0.00 0.00 79 1015.4
20260902085546 80 0 0.0 0.0 0.00 0.00 0.00 79 1015.4
20260902085047 80 0 0.0 0.0 0.00 0.00 0.00 79 1015.4
20260902084609 80 0 0.0 0.0 0.00 0.00 0.00 78 1015.5
20260902084048 80 0 0.0 0.0 0.00 0.00 0.00 78 1015.4
20260902083547 80 0 0.0 0.0 0.00 0.00 0.00 78 1015.3
20260902083055 80 0 0.0 0.0 0.00 0.00 0.00 79 1015.3
20260902082547 80 0 0.0 0.0 0.00 0.00 0.00 79 1015.4
20260902082046 80 0 0.0 0.0 0.00 0.00 0.00 79 1015.4
20260902081603 80 0 0.0 0.0 0.00 0.00 0.00 78 1015.5
20260902081047 80 0 0.0 0.0 0.00 0.00 0.00 78 1015.5
20260902080547 81 0 0.0 0.0 0.00 0.00 0.00 78 1015.5
20260902080059 81 0 0.0 0.0 0.00 0.00 0.00 77 1015.5
20260902075546 81 0 0.0 0.0 0.00 0.00 0.00 77 1015.4
20260902075048 81 0 0.0 0.0 0.00 0.00 0.00 76 1015.4
20260902074610 81 0 0.0 0.0 0.00 0.00 0.00 76 1015.4
20260902074046 81 0 0.0 0.0 0.00 0.00 0.00 76 1015.5
20260902073547 82 0 0.0 0.0 0.00 0.00 0.00 75 1015.5
20260902073055 82 0 0.0 0.0 0.00 0.00 0.00 75 1015.5
20260902072547 82 0 0.0 0.0 0.00 0.00 0.00 75 1015.5
20260902072047 82 0 0.0 0.0 0.00 0.00 0.00 74 1015.7
20260902071602 83 0 0.0 0.0 0.00 0.00 0.00 74 1015.7
20260902071048 83 0 0.0 0.0 0.00 0.00 0.00 74 1015.7
20260902070547 84 0 0.0 0.0 0.00 0.00 0.00 73 1015.7
20260902065547 84 0 0.0 1.7 0.00 0.00 0.00 73 1015.7
20260902065047 84 0 0.0 0.9 0.00 0.00 0.00 73 1015.7
20260902064558 84 0 0.0 0.9 0.00 0.00 0.00 73 1015.7
20260902064046 84 0 0.0 0.0 0.00 0.00 0.00 73 1015.7
20260902063546 84 0 0.0 0.0 0.00 0.00 0.00 72 1015.6
20260902063116 85 0 0.0 0.9 0.00 0.00 0.00 72 1015.6
20260902062547 85 0 0.0 0.9 0.00 0.00 0.00 71 1015.5
20260902062046 85 0 0.0 0.9 0.00 0.00 0.00 71 1015.6
20260902061608 85 0 0.0 0.9 0.00 0.00 0.00 71 1015.6
20260902061048 85 0 0.0 1.7 0.00 0.00 0.00 71 1015.5
20260902060546 85 0 0.0 2.6 0.00 0.00 0.00 71 1015.6
20260902060113 85 0 0.9 2.6 0.00 0.00 0.00 71 1015.6
20260902055546 85 64 0.0 3.5 0.00 0.00 0.00 70 1015.7
20260902055047 85 0 0.0 3.5 0.00 0.00 0.00 70 1015.7
20260902054611 85 0 0.0 2.6 0.00 0.00 0.00 70 1015.6
20260902054048 86 0 0.0 2.6 0.00 0.00 0.00 70 1015.5
20260902053547 86 63 0.0 2.6 0.00 0.00 0.00 70 1015.6
20260902053107 86 0 0.0 2.6 0.00 0.00 0.00 69 1015.5
20260902052551 86 0 0.0 0.9 0.00 0.00 0.00 69 1015.6
20260902052047 86 0 0.0 2.6 0.00 0.00 0.00 69 1015.5
20260902051603 86 0 0.0 2.6 0.00 0.00 0.00 69 1015.6
20260902051047 86 0 0.0 1.7 0.00 0.00 0.00 68 1015.4
20260902050547 87 0 0.0 1.7 0.00 0.00 0.00 68 1015.5
20260902050103 87 0 0.0 1.7 0.00 0.00 0.00 68 1015.6
20260902045547 87 70 0.0 2.6 0.00 0.00 0.00 67 1015.5
20260902045047 87 0 0.0 3.5 0.00 0.00 0.00 67 1015.5
20260902044618 87 0 0.9 3.5 0.00 0.00 0.00 67 1015.4
20260902044046 87 0 0.0 2.6 0.00 0.00 0.00 66 1015.4
20260902043545 87 82 0.0 2.6 0.00 0.00 0.00 66 1015.5
20260902043109 88 0 0.0 2.6 0.00 0.00 0.00 66 1015.5
20260902042549 88 0 0.0 2.6 0.00 0.00 0.00 65 1015.5
20260902042046 88 66 0.0 2.6 0.00 0.00 0.00 65 1015.5
20260902041608 88 65 0.0 2.6 0.00 0.00 0.00 65 1015.6
20260902041046 88 0 0.0 5.2 0.00 0.00 0.00 64 1015.5
20260902040546 88 62 0.0 5.2 0.00 0.00 0.00 64 1015.4
20260902040105 89 62 0.9 5.2 0.00 0.00 0.00 64 1015.5
20260902035547 89 0 0.0 1.7 0.00 0.00 0.00 63 1015.3
20260902035046 89 0 0.0 3.5 0.00 0.00 0.00 63 1015.3
20260902034609 89 0 0.0 3.5 0.00 0.00 0.00 63 1015.3
20260902034047 89 62 0.0 2.6 0.00 0.00 0.00 62 1015.2
20260902033546 89 0 0.0 2.6 0.00 0.00 0.00 62 1015.1
20260902033054 89 0 0.0 0.9 0.00 0.00 0.00 61 1015.0
20260902032548 89 0 0.0 1.7 0.00 0.00 0.00 61 1015.0
20260902032046 89 0 0.0 1.7 0.00 0.00 0.00 61 1014.9
20260902031600 89 0 0.0 1.7 0.00 0.00 0.00 61 1014.9
20260902031050 90 0 0.0 1.7 0.00 0.00 0.00 60 1014.7
20260902030550 90 0 0.0 0.9 0.00 0.00 0.00 60 1014.7
20260902030058 90 0 0.0 0.9 0.00 0.00 0.00 60 1014.7
20260902025547 90 0 0.0 0.0 0.00 0.00 0.00 60 1014.6
20260902025049 90 0 0.0 0.0 0.00 0.00 0.00 59 1014.4
20260902024604 90 0 0.0 0.9 0.00 0.00 0.00 59 1014.3
20260902024046 91 0 0.0 0.9 0.00 0.00 0.00 60 1014.2
20260902023546 91 0 0.0 1.7 0.00 0.00 0.00 58 1014.1
20260902023059 91 0 0.0 2.6 0.00 0.00 0.00 58 1014.0
20260902022547 91 60 0.0 2.6 0.00 0.00 0.00 58 1013.9
20260902022049 91 0 0.0 0.9 0.00 0.00 0.00 57 1013.8
20260902021552 91 0 0.0 1.7 0.00 0.00 0.00 57 1013.9
20260902021046 91 0 0.0 5.2 0.00 0.00 0.00 57 1013.7
20260902020547 91 0 0.0 5.2 0.00 0.00 0.00 57 1013.7
20260902020059 92 0 0.0 5.2 0.00 0.00 0.00 56 1013.6
20260902015546 92 0 0.0 2.6 0.00 0.00 0.00 56 1013.6
20260902015046 92 0 0.0 2.6 0.00 0.00 0.00 56 1013.5
20260902014556 92 100 0.0 5.2 0.00 0.00 0.00 55 1013.5
20260902014046 92 0 0.0 5.2 0.00 0.00 0.00 55 1013.5
20260902013547 93 0 0.0 7.0 0.00 0.00 0.00 54 1013.4
20260902013101 93 0 0.0 7.0 0.00 0.00 0.00 54 1013.4
20260902012546 93 0 0.9 7.0 0.00 0.00 0.00 53 1013.3
20260902012046 93 60 0.9 7.0 0.00 0.00 0.00 52 1013.1
20260902011603 94 0 0.0 1.7 0.00 0.00 0.00 50 1013.1
20260902011047 94 0 0.0 1.7 0.00 0.00 0.00 49 1013.0
20260902010546 94 0 0.0 2.6 0.00 0.00 0.00 49 1012.9
20260902005546 94 70 0.0 1.7 0.00 0.00 0.00 49 1012.9
20260902005050 94 0 0.0 1.7 0.00 0.00 0.00 49 1012.9
20260902004601 94 70 0.0 1.7 0.00 0.00 0.00 49 1013.0
20260902004046 95 0 0.0 1.7 0.00 0.00 0.00 49 1013.0
20260902003546 95 0 0.0 0.9 0.00 0.00 0.00 50 1013.1
20260902003128 95 0 0.0 2.6 0.00 0.00 0.00 48 1013.2
20260902002546 95 0 0.0 2.6 0.00 0.00 0.00 49 1013.3
20260902002046 95 71 0.0 1.7 0.00 0.00 0.00 49 1013.1
20260902001559 95 0 0.0 1.7 0.00 0.00 0.00 49 1013.1
20260902001047 95 0 0.0 1.7 0.00 0.00 0.00 48 1013.1
20260902000546 96 71 0.0 1.7 0.00 0.00 0.00 49 1013.1
20260902000100 96 71 0.0 1.7 0.00 0.00 0.00 48 1013.1
20260901235546 96 0 0.0 2.6 0.00 0.00 0.00 48 1013.1
20260901235047 96 0 0.0 3.5 0.00 0.00 0.00 48 1013.1
20260901234603 97 0 0.9 3.5 0.00 0.00 0.00 48 1013.1
20260901234046 97 113 0.0 3.5 0.00 0.00 0.00 47 1013.1
20260901233548 97 118 0.0 2.6 0.00 0.00 0.00 47 1013.1
20260901233100 97 0 0.9 2.6 0.00 0.00 0.00 47 1013.0
20260901232546 97 152 0.9 2.6 0.00 0.00 0.00 47 1013.0
20260901232046 98 83 0.0 1.7 0.00 0.00 0.00 47 1012.9
20260901231602 98 0 0.0 2.6 0.00 0.00 0.00 46 1012.9
20260901231046 98 0 0.0 2.6 0.00 0.00 0.00 46 1012.9
20260901230546 98 83 0.0 1.7 0.00 0.00 0.00 46 1012.8
20260901230058 98 0 0.0 2.6 0.00 0.00 0.00 47 1012.9
20260901225547 98 0 0.0 3.5 0.00 0.00 0.00 45 1013.0
20260901225046 98 83 0.0 3.5 0.00 0.00 0.00 46 1013.0
20260901224556 98 0 0.0 1.7 0.00 0.00 0.00 46 1013.0
20260901224046 98 0 0.0 1.7 0.00 0.00 0.00 45 1013.0
20260901223546 98 0 0.0 2.6 0.00 0.00 0.00 46 1013.0
20260901223052 99 130 0.0 2.6 0.00 0.00 0.00 45 1013.0
20260901222547 99 86 0.9 2.6 0.00 0.00 0.00 44 1012.9
20260901222048 99 88 0.0 2.6 0.00 0.00 0.00 45 1013.0
20260901221609 99 71 0.0 2.6 0.00 0.00 0.00 45 1013.1
20260901221047 99 68 0.0 2.6 0.00 0.00 0.00 44 1013.0
20260901220546 99 68 0.0 5.2 0.00 0.00 0.00 43 1013.0
20260901220059 99 0 1.7 5.2 0.00 0.00 0.00 43 1013.0
20260901215547 99 55 0.0 6.1 0.00 0.00 0.00 43 1012.9
20260901215047 99 0 0.9 6.1 0.00 0.00 0.00 43 1013.0
20260901214556 100 54 0.0 6.1 0.00 0.00 0.00 43 1013.1
20260901214046 100 63 0.9 6.1 0.00 0.00 0.00 43 1013.1
20260901213546 100 58 0.9 5.2 0.00 0.00 0.00 45 1013.1
20260901213053 100 0 0.0 5.2 0.00 0.00 0.00 46 1013.1
20260901212546 100 62 0.9 3.5 0.00 0.00 0.00 45 1013.1
20260901212047 100 107 0.0 1.7 0.00 0.00 0.00 46 1013.3
20260901211557 100 0 0.0 2.6 0.00 0.00 0.00 45 1013.3